This is the latest recevied weather packets stored in our database for station/object IW8XOI-10. If no packets are shown the sender has not sent any weather packets the latest 10 day(s).
| Time | Temp. | Humidity | Pressure | Rain* | Wind** | Luminosity | Snow |
|---|---|---|---|---|---|---|---|
| 1777856092 | 22.22° C | 46% | 1027.7 hPa | - | - | - | - |
| 1777852492 | 23.33° C | 46% | 1028.1 hPa | - | - | - | - |
| 1777848892 | 23.89° C | 45% | 1028.3 hPa | - | - | - | - |
| 1777845292 | 25° C | 45% | 1028.2 hPa | - | - | - | - |
| 1777841692 | 26.67° C | 44% | 1028.4 hPa | - | - | - | - |
| 1777838093 | 28.33° C | 43% | 1028.2 hPa | - | - | - | - |
| 1777834492 | 28.89° C | 43% | 1028 hPa | - | - | - | - |
| 1777830893 | 30° C | 43% | 1027.7 hPa | - | - | - | - |
| 1777827293 | 30.56° C | 43% | 1027.7 hPa | - | - | - | - |
| 1777823693 | 30° C | 43% | 1027.6 hPa | - | - | - | - |
| 1777820093 | 29.44° C | 43% | 1027.9 hPa | - | - | - | - |
| 1777816493 | 28.89° C | 43% | 1028.2 hPa | - | - | - | - |
| 1777812902 | 27.78° C | 45% | 1028.6 hPa | - | - | - | - |
| 1777812895 | 27.78° C | 45% | 1028.6 hPa | - | - | - | - |
| 1777809293 | 26.67° C | 45% | 1029 hPa | - | - | - | - |
| 1777805693 | 25° C | 46% | 1029.2 hPa | - | - | - | - |
| 1777802093 | 23.33° C | 46% | 1029.7 hPa | - | - | - | - |
| 1777798493 | 20.56° C | 47% | 1029.9 hPa | - | - | - | - |
| 1777794893 | 19.44° C | 47% | 1029.9 hPa | - | - | - | - |
| 1777791294 | 18.89° C | 47% | 1029.8 hPa | - | - | - | - |
| 1777787694 | 18.89° C | 47% | 1029.7 hPa | - | - | - | - |
| 1777784161 | 17.78° C | 48% | 1029.4 hPa | - | - | - | - |
| 1777784094 | 17.78° C | 48% | 1029.4 hPa | - | - | - | - |
| 1777780494 | 18.33° C | 48% | 1029.1 hPa | - | - | - | - |
| 1777776894 | 18.89° C | 48% | 1029.3 hPa | - | - | - | - |
* Rain since midnight (hover to see other rain measurements)
** Current wind speed in m/s (hover to see current wind gust speed)